Location: Banksville Park
(38.5557°N, 75.1182°W)
Time: 03:19:03
(UTC+00:00)

Envisat - Pass Details

Date: 02 December 2020
Orbit: 764 x 766 km, 98.1° (Epoch: 16 January)

Event Time Altitude Azimuth Distance (km) Brightness Sun altitude
Rises 09:44:31 0° 31° (NNE) 3,238 6.5 -26.0°
Reaches altitude 10° 09:47:34 10° 50° (NE) 2,307 6.0 -25.4°
Maximum altitude 09:51:00 18° 92° (E) 1,807 5.8 -24.8°
Drops below altitude 10° 09:54:24 10° 135° (SE) 2,295 6.2 -24.1°
Sets 09:57:24 0° 154° (SSE) 3,215 6.7 -23.5°
